Chillicothe, MO

9:22 AM CDT on April 23, 2017 (GMT -0500)
Chillicothe

Weather History for KCDJ - May, 2013

Change the Weather History Date:

Tuesday, May 14, 2013

  Actual Average (KIRK) Record (KIRK)
Temperature  
Mean Temperature 73 °F -  
Max Temperature 93 °F 72 °F 90 °F (1944)
Min Temperature 55 °F 50 °F 33 °F (1966)
Cooling Degree Days 8    
Growing Degree Days 23 (Base 50)    
Moisture  
Dew Point 53 °F    
Average Humidity 49    
Maximum Humidity 87    
Minimum Humidity 23    
Precipitation  
Precipitation 0.00 in - - ()
Sea Level Pressure  
Sea Level Pressure 29.80 in    
Wind  
Wind Speed 7 mph (SSW)    
Max Wind Speed 15 mph    
Max Gust Speed 23 mph    
Averages and records for this station are not official NWS values.
T = Trace of Precipitation, MM = Missing Value Source: NWS Daily Summary

Daily Weather History Graph

Daily Weather History Graph

Search for Another Location

Airport or City:

Trip Planner

Search our weather history database for the weather conditions in past years. The results will help you decide how hot, cold, wet, or windy it might be!

Date:

Astronomy

May. 14, 2013 Rise Set
Actual Time 6:00 AM CDT 8:21 PM CDT
Civil Twilight 5:29 AM CDT 8:52 PM CDT
Nautical Twilight 4:52 AM CDT 9:30 PM CDT
Astronomical Twilight 4:10 AM CDT 10:11 PM CDT
Moon 9:40 AM CDT (5/14) No Moon Set
Length of Visible Light 15h 22m
Length of Day
14h 21m
Waxing Crescent, 19% of the Moon is Illuminated
May 14
Waxing Crescent
May 17
First Quarter
May 24
Full
May 31
Last Quarter
Jun 8
New

Hourly Weather History & Observations

Time (CDT) Temp. Heat Index Dew Point Humidity Pressure Visibility Wind Dir Wind Speed Gust Speed Precip Events Conditions
12:52 AM 63.0 °F - 54.0 °F 72% 29.90 in - South 6.9 mph - N/A   Unknown
1:52 AM 62.1 °F - 54.0 °F 75% 29.88 in - South 5.8 mph - N/A   Unknown
2:52 AM 62.1 °F - 54.0 °F 75% 29.86 in - South 5.8 mph - N/A   Unknown
3:52 AM 62.1 °F - 54.0 °F 75% 29.84 in - South 4.6 mph - N/A   Unknown
4:52 AM 57.0 °F - 53.1 °F 87% 29.84 in - South 4.6 mph - N/A   Unknown
5:52 AM 55.9 °F - 52.0 °F 87% 29.83 in - South 5.8 mph - N/A   Unknown
6:52 AM 60.1 °F - 54.0 °F 80% 29.84 in - Calm Calm - N/A   Unknown
7:52 AM 66.0 °F - 55.9 °F 70% 29.83 in - South 4.6 mph - N/A   Unknown
8:52 AM 72.0 °F - 57.0 °F 59% 29.83 in - SSW 4.6 mph - N/A   Unknown
9:52 AM 79.0 °F - 55.0 °F 44% 29.82 in - SW 8.1 mph - N/A   Unknown
10:52 AM 82.0 °F 81.3 °F 54.0 °F 38% 29.82 in - SW 9.2 mph - N/A   Unknown
11:52 AM 84.0 °F 82.9 °F 55.0 °F 37% 29.81 in - SSW 9.2 mph - N/A   Unknown
12:52 PM 86.0 °F 84.7 °F 55.9 °F 36% 29.80 in - South 10.4 mph - N/A   Unknown
1:52 PM 88.0 °F 86.7 °F 57.0 °F 35% 29.78 in - SSW 12.7 mph 19.6 mph N/A   Unknown
2:52 PM 89.1 °F 87.1 °F 55.0 °F 31% 29.77 in - SSW 12.7 mph 20.7 mph N/A   Unknown
3:52 PM 90.0 °F 88.1 °F 55.9 °F 31% 29.75 in - South 13.8 mph 23.0 mph N/A   Unknown
4:52 PM 91.9 °F 89.5 °F 53.1 °F 27% 29.74 in - SSW 15.0 mph 23.0 mph N/A   Unknown
5:52 PM 91.9 °F - 48.9 °F 23% 29.73 in - SW 12.7 mph 23.0 mph N/A   Unknown
6:52 PM 91.0 °F - 48.0 °F 23% 29.72 in - SW 9.2 mph 21.9 mph N/A   Unknown
7:52 PM 87.1 °F - 46.9 °F 25% 29.73 in - SSW 8.1 mph 18.4 mph N/A   Unknown
8:52 PM 82.9 °F - 48.0 °F 29% 29.74 in - SSW 10.4 mph 21.9 mph N/A   Unknown
9:52 PM 79.0 °F - 48.0 °F 34% 29.77 in - South 9.2 mph - N/A   Unknown
10:52 PM 77.0 °F - 48.9 °F 37% 29.77 in - SSW 6.9 mph - N/A   Unknown
11:52 PM 75.9 °F - 51.1 °F 42% 29.78 in - SSW 10.4 mph 18.4 mph N/A   Unknown